Regional Weather Roundup
Issued by NWS

Home | Current Version | Previous Version | Text Only | Print | Product List | Glossary On
Versions: 1 2 3 4 5 6 7 8 9 10 11 12 13 14 15 16 17 18 19 20 21 22 23 24 25 26 27 28 29 30 31 32 33 34 35 36 37 38 39 40 41 42 43 44 45 46 47 48 49 50
000
ASUS43 KLOT 220610
RWRIL

ILLINOIS REGIONAL WEATHER ROUNDUP
NATIONAL WEATHER SERVICE CHICAGO/ROMEOVILLE IL
100 AM CDT MON SEP 22 2014

NOTE: "FAIR" INDICATES FEW OR NO CLOUDS BELOW 12,000 FEET WITH NO
SIGNIFICANT WEATHER AND/OR OBSTRUCTIONS TO VISIBILITY.

* THESE STATIONS ARE NOT UNDER NWS QUALITY CONTROL. THEY ALSO MAY NOT
  REPORT WEATHER SUCH AS PRECIPITATION OR FOG.

ILZ001-002-007-009-015-016-024-220700-
NORTHWEST ILLINOIS

CITY           SKY/WX    TMP DP  RH WIND       PRES   REMARKS
MOLINE         CLEAR     54  46  74 N3        30.19R
6HR MIN TEMP:  54; 6HR MAX TEMP:  63;

STERLING*      CLEAR     52  45  76 NE5       30.18R
SAVANNA*       CLEAR     50  44  82 N5        30.20R
$$

ILZ003-004-008-010-011-017-018-220700-
NORTH CENTRAL ILLINOIS

CITY           SKY/WX    TMP DP  RH WIND       PRES   REMARKS
ROCKFORD       CLEAR     48  43  82 N7        30.20R
6HR MIN TEMP:  47; 6HR MAX TEMP:  59;

FREEPORT*      CLEAR     46  43  92 NW3       30.21R
ROCHELLE*      CLEAR     45  43  92 CALM      30.18R
DE KALB*       CLEAR     46  42  88 NW5       30.18R
PERU*          CLEAR     50  46  85 N7        30.17S
$$

ILZ005-006-012>014-019>023-220700-
NORTHEAST ILLINOIS

CITY           SKY/WX    TMP DP  RH WIND       PRES   REMARKS
CHICAGO-OHARE  PTCLDY    51  43  74 N8        30.14S
6HR MIN TEMP:  51; 6HR MAX TEMP:  60;

CHICAGO-MIDWAY PTCLDY    53  44  71 NW7       30.14R
6HR MIN TEMP:  53; 6HR MAX TEMP:  61;

AURORA         CLEAR     43  40  89 NW3       30.16S
6HR MIN TEMP:  43; 6HR MAX TEMP:  58;

LANSING*       CLOUDY    55  47  75 N6        30.14R
JOLIET*          N/A     45  44  95 CALM      30.17R FOG
WAUKEGAN       CLEAR     47  42  83 NW5       30.16R
6HR MIN TEMP:  47; 6HR MAX TEMP:  56;

DUPAGE AIRPORT CLEAR     45  42  89 N5        30.15S
6HR MIN TEMP:  44; 6HR MAX TEMP:  59;

KANKAKEE*      CLEAR     50  46  86 CALM      30.15S
WHEELING       CLEAR     48  43  82 N5        30.16S
6HR MIN TEMP:  48; 6HR MAX TEMP:  58;

MORRIS*        CLEAR     47  47 100 CALM      30.16R
ROMEOVILLE*    CLEAR     48  47  96 N3        30.16R
NORTHERLY ISL    N/A     56  47  71 N15         N/A
$$

LMZ740>746-220700-
SOUTHERN LAKE MICHIGAN

STATION/POSITION SKY/WX   TEMP    WIND        PRES    VSBY  WAVE
                          AIR SEA DIR/SP/G                  HT/PER
                          (F)     (DEG/KT/KT) (MB)    (MI)  (FT/S)
SOUTHERN BUOY              54 61  350/ 19/ 25 1020.7R         7/ 8
WAUKEGAN HARBOR            50     330/  8/ 10   N/A
HARRISON CRIB              56      10/ 18/ 22   N/A
BURNHAM HARBOR             56     350/ 11/ 15   N/A
CALUMET HARBOR             56     360/ 11/ 15 1019.4R
MICHIGAN CITY              56     360/ 23/ 29   N/A
MICHIGAN CITY 6N           57 64   20/ 17/ 23   N/A           8/ 7
ST. JOSEPH                 56 65  360/ 19/ 27   N/A           8/ 6
$$

ILZ025>027-034>036-040-047-049-050-058-095>099-220700-
WEST-CENTRAL ILLINOIS

CITY           SKY/WX    TMP DP  RH WIND       PRES   REMARKS
QUINCY         CLEAR     53  49  86 NW7       30.20R
GALESBURG*     CLEAR     49  48  96 NW6       30.19S
MACOMB*        CLEAR     50  48  93 NW6       30.21S
JACKSONVILLE*  CLEAR     55  51  89 NW6       30.19S
PITTSFIELD*    CLEAR     56  50  80 NW7       30.20S
$$

ILZ028>032-037-038-041>044-048-051>054-059>061-220700-
CENTRAL ILLINOIS

CITY           SKY/WX    TMP DP  RH WIND       PRES   REMARKS
PONTIAC        CLEAR     48  48 100 CALM      30.16R
DECATUR        CLEAR     55  51  86 N12       30.16R
PEORIA         CLEAR     54  49  83 N3        30.17R
6HR MIN TEMP:  54; 6HR MAX TEMP:  62;

LACON*         CLEAR     49  47  92 CALM      30.16S
LINCOLN*       CLEAR     53  50  91 CALM      30.15S
SPRINGFIELD    CLEAR     54  51  90 NW6       30.17R
6HR MIN TEMP:  54; 6HR MAX TEMP:  65;

TAYLORVILLE    FAIR      52  50  93 NW3       30.16R
$$

ILZ033-039-045-046-055>057-062-063-220700-
EAST-CENTRAL ILLINOIS

CITY           SKY/WX    TMP DP  RH WIND       PRES   REMARKS
CHAMPAIGN      CLEAR     50  48  93 NW3       30.15R
DANVILLE*      CLEAR     48  48  97 N3        30.13R
RANTOUL*       CLEAR     55  50  84 N5        30.16R
MATTOON        CLEAR     51  48  89 N3        30.15R
PARIS*         CLEAR     51  50  97 CALM      30.14R
$$

ILZ079-100>102-220700-
SOUTHWEST ILLINOIS

CITY           SKY/WX    TMP DP  RH WIND       PRES   REMARKS
ALTON          CLEAR     53  50  87 CALM      30.18R
BELLEVILLE     CLEAR     55  51  86 W3        30.16R
CAHOKIA*       CLEAR     58  50  75 N5        30.18R
SPARTA*        CLEAR     56  51  84 N3        30.17R
$$

ILZ064>066-069>071-074>076-080>082-084>086-088>090-092>094-220700-
SOUTH-CENTRAL ILLINOIS

CITY           SKY/WX    TMP DP  RH WIND       PRES   REMARKS
CARBONDALE     CLEAR     56  51  84 NW3       30.15R
6HR MIN TEMP:  56; 6HR MAX TEMP:  70;

CAIRO*         CLEAR     60  52  75 N6        30.14R
EFFINGHAM*     CLEAR     55  49  82 NW7       30.15R
MARION         CLEAR     59  52  77 N5        30.15R
MT. VERNON     CLEAR     55  48  76 N3        30.15R
CENTRALIA*     CLEAR     55  49  82 N6        30.15S
SALEM*         CLEAR     55  53  93 CALM      30.16R
METROPOLIS*    CLEAR     55  53  94 CALM      30.13R
$$

ILZ067-068-072-073-078-083-087-091-220700-
SOUTHEAST ILLINOIS

CITY           SKY/WX    TMP DP  RH WIND       PRES   REMARKS
LAWRENCEVILLE  CLEAR     54  51  90 NW7       30.13R
FLORA*         CLEAR     55  50  83 NW7       30.14R
FAIRFIELD*     CLEAR    N/A N/A N/A N5        30.13S
HARRISBURG*    CLEAR     58  51  78 CALM      30.15R
ROBINSON*      CLEAR     56  53  89 NW7       30.14R
CARMI*         CLEAR     57  53  86 N3        30.13R
$$

ABBREVIATIONS USED IN REMARKS
   TC - TEMPERATURE IN CELSIUS
  WCI - WIND CHILL INDEX
   HX - HEAT INDEX
  VSB - VISIBILITY
$$



USA.gov is the U.S. government's official web portal to all federal, state and local government web resources and services.